Regional Weather Roundup
Issued by NWS Upton, NY

Current Version | Previous Version | Graphics & Text | Print | Product List | Glossary Off
Versions: 1 2 3 4 5 6 7 8 9 10 11 12 13 14 15 16 17 18 19 20 21 22 23 24 25 26 27

000
ASUS41 KOKX 221208
RWROKX

REGIONAL WEATHER ROUNDUP
NATIONAL WEATHER SERVICE NEW YORK NY
800 AM EDT TUE AUG 22 2017

NOTE: "FAIR" INDICATES FEW OR NO CLOUDS BELOW 12,000 FEET WITH NO
SIGNIFICANT WEATHER AND/OR OBSTRUCTIONS TO VISIBILITY.

NYZ071-072-176-178-NJZ106-104-221300-
NEW YORK CITY METRO AREA

CITY           SKY/WX    TMP DP  RH WIND       PRES   REMARKS
Central Park   PTSUNNY   76  72  87 SW5       30.05F
Bronx Bot Gard   N/A     77  70  78 W9        30.04F
LaGuardia APRT PTSUNNY   77  73  87 SW6       30.02S
Kennedy INTL   CLOUDY    76  75  97 SW8       30.04S
Breezy Point     N/A     73 N/A N/A S3          N/A
Newark/Liberty CLOUDY    75  73  93 SW9       30.03R FOG
Teterboro      PTSUNNY   76  72  87 SW9       30.01F
$$

NYZ177-179-078>081-221300-
LONG ISLAND NEW YORK

CITY           SKY/WX    TMP DP  RH WIND       PRES   REMARKS
Jones Beach      N/A     73 N/A N/A SW3         N/A
Matinecock PT    N/A     75 N/A N/A SW8         N/A
Farmingdale    CLOUDY    76  73  91 SW7       30.03F
MacArthur/ISP  PTSUNNY   77  74  90 SW7       30.03F
Shirley        PTSUNNY   78  75  90 SW10      30.04S
Mt Sinai Harb    N/A    N/A N/A N/A S8          N/A
Westhampton    CLOUDY    76  72  87 SW10G18   30.06S
East Hampton   CLOUDY    73  71  95 SW7       30.04S
Montauk          N/A     74  73  97 SW7       30.05F
$$

NYZ052-065-067-221300-
HUDSON VALLEY

CITY           SKY/WX    TMP DP  RH WIND       PRES   REMARKS
White Plains   SUNNY     74  71  91 SE3       30.03F FOG
Larchmont Harb   N/A     73 N/A N/A S9          N/A
Croton On Huds   N/A     75 N/A N/A CALM        N/A
Newburgh       SUNNY     72  72 100 CALM      30.04S FOG
Montgomery     SUNNY     72  70  93 W5        30.02S FOG
Poughkeepsie   SUNNY     73  69  87 CALM      30.01S
Albany         MOSUNNY   73  68  84 S9        29.98F
$$

NJZ001-105-106-008-010-013-015-019>022-104-221300-
NEW JERSEY

CITY           SKY/WX    TMP DP  RH WIND       PRES   REMARKS
Newark/Liberty CLOUDY    75  73  93 SW9       30.03R FOG
Teterboro      PTSUNNY   76  72  87 SW9       30.01F
Caldwell       SUNNY     74  72  93 VRB5      30.03S
Somerville     CLOUDY    72  71  97 CALM      30.02S FOG
Linden         CLOUDY    75  72  91 W6        30.03S FOG
Perth Amboy      N/A     73 N/A N/A SW9         N/A
Sussex         PTSUNNY   71  71 100 SW6       30.03F FOG
Andover          N/A     71  69  93 CALM      30.04F
Trenton        CLOUDY    76  74  93 S6        30.03F FOG
Millville      MOSUNNY   80  78  94 SW6       30.06S
Atlantic City  PTSUNNY   78  76  93 SW10      30.06S
Wrightstown    CLOUDY    74  73  97 SW7       30.02S
Toms River     CLOUDY    76  74  93 SW8       30.06S
Belmar         CLOUDY    75  73  93 SW6       30.06S
$$

PAZ047>061-062-071-221300-
EASTERN PENNSYLVANIA

CITY           SKY/WX    TMP DP  RH WIND       PRES   REMARKS
Philadelphia   CLOUDY    77  74  90 SW8       30.05S FOG
Allentown      SUNNY     72  68  87 CALM      30.04S FOG
Scranton       SUNNY     71  69  93 CALM      30.04F FOG
$$

CTZ002-004>006-009-010-012-RIZ004-006-007-MAZ004-011-015-221300-
SOUTHERN NEW ENGLAND
 IN CT

CITY           SKY/WX    TMP DP  RH WIND       PRES   REMARKS
Bradley INTL   CLOUDY    72  70  93 SW6       30.02S FOG
Hartford       CLOUDY    74  71  91 SW7       30.01S
Danbury        MOSUNNY   73  71  93 SE5       30.04F FOG
Wtrbury/Oxford FOG       70  70 100 VRB3      30.05F VSB 1/4
Norwalk Harbor   N/A     73 N/A N/A S6          N/A
Bridgeport     CLOUDY    76  72  87 SW9       30.02F
Meriden        CLOUDY    73  71  93 S3        30.03S
New Haven      PTSUNNY   76  72  87 SW7       30.03S FOG
Chester        CLOUDY    73  73 100 SW8       30.04F FOG
Groton         CLOUDY    73  71  93 CALM      30.03S FOG
Wilimantic     CLOUDY    70  68  93 CALM      30.03F

 IN RI

CITY           SKY/WX    TMP DP  RH WIND       PRES   REMARKS
Providence     CLOUDY    73  72  96 SW8       30.04S
Block Island   MOSUNNY   73  71  93 SW12      30.05F
Westerly       CLOUDY    74  71  91 SW8       30.05S
 IN MA

CITY           SKY/WX    TMP DP  RH WIND       PRES   REMARKS
Boston         NOT AVBL
Worcester      FOG       67  65  93 SW9       30.04F VSB 1/4
Westfield      CLOUDY    70  69  97 CALM      30.01F FOG
Provincetown   CLOUDY    72  70  93 S14       30.03F FOG
Nantucket      SUNNY     70  70 100 SW12      30.07S FOG
$$

ANZ330-335-338-340-345-350-353-355-221300-
COASTAL MARINE OBSERVATIONS


STATION/POSITION TIME  SKY/WX   TEMP    WIND        PRES    VSBY  WAVE
                                AIR SEA DIR/SP/G                  HT/PER
                 (UTC)          (F)     (DEG/KT/KT) (MB)    (MI)  (FT/S)
NY HARB ENTRANCE 1050            76 76  230/ 10/ 12 1016.6          2/ 4
GREAT SOUTH BAY  1115            76 78  220/ 12/ 14   N/A
23 SSW MONTAUK P 1050            74 72              1018.0          3/ 5
15 E BARNEGAT LI 1130               77                N/A           3/ 4
HUDSON CANYON    1050            76 76  210/ 12/ 16 1017.8          3/10
KINGS POINT      1130            75 75  200/  7/  8 1016.5
EXECUTION ROCKS  NOT AVBL
WESTERN LI SOUND NOT AVBL
CENTRAL LI SOUND NOT AVBL
EASTERN LI SOUND NOT AVBL
ROBBINS REEF     1130                   240/  6/  8 1017.5
$$


>>>>>>>>>>>>>>>>>>>>>>>>>>>> KEY <<<<<<<<<<<<<<<<<<<<<<<<<<<
>                                                          <
>     SKY/WX - Sky Condition/Present Weather               <
>     TMP    - Temperature in Fahrenheit                   <
>     DP     - Dew Point in Fahrenheit                     <
>     RH     - Relative Humidity in Percent                <
>     WIND   - Direction (from) and Speed in MPH           <
>     PRES   - Mean Sea Level Pressure (inches of Hg)      <
>     WCI    - Wind Chill Index                            <
>     VSB    - VISIBILITY IN MILES                         <
>     HX     - HEAT INDEX                                  <
>     TC     - TEMPERATURE IN CELSIUS                      <
>     VRB    - VARIABLE WIND DIRECTION                     <
>                                                          <
>>>>>>>>>>>>>>>>>>>>>>>>>>>> KEY <<<<<<<<<<<<<<<<<<<<<<<<<<<




USA.gov is the U.S. government's official web portal to all federal, state and local government web resources and services.